Home > Weather > Idar-Oberstein > Past weeks

Flag for Germany Weather for the Past 2 Weeks in Idar-Oberstein, Rhineland-Palatinate, Germany

Now
41 °F

Clear.


Feels Like: 36 °F
Forecast: 41 / 55 °F
Wind: 8 mph from Northeast

Location: Hahn

Current Time: May 2, 2016 at 5:56:07 AM

Latest Report: May 2, 2016 at 4:50 AM


Visibility: 10 mi

Pressure: 30.24 "Hg

Humidity: 93%

Dew Point: 39 °F

Location of Idar-ObersteinLocation

Historic Weather in Idar-Oberstein — Graph

°F

Idar-Oberstein Temperature Yesterday

Maximum temperature yesterday: 54 °F (at 4:50 PM)
Minimum temperature yesterday: 37 °F (at 2:50 AM)
Average temperature yesterday: 44 °F

High & Low Weather Summary for the Past Weeks

 TemperatureHumidityPressure
High63 °F (Apr 21, 3:50 PM)100% (Apr 17, 4:20 AM)30.39 "Hg (Apr 17, 4:20 AM)
Low28 °F (Apr 25, 5:50 AM)30% (Apr 21, 5:50 PM)29.53 "Hg (Apr 25, 11:50 PM)
Average42 °F74%29.99 "Hg
* Reported Apr 17 4:20 AM — May 2 4:20 AM, Idar-Oberstein, Weather by CustomWeather, © 2016

Note: Actual official high and low records may vary slightly from our data, if they occured in-between our weather recording intervals... More about our weather records

Advertising

Idar-Oberstein Weather History for the Previous 24 Hours

Scroll right to see more
 ConditionsComfort  
Time TempWeatherWind HumidityBarometerVisibility
4:20 AM
Mon, May 2
43 °FClear.9 mph87%30.27 "Hg10 mi
3:50 AM43 °FClear.7 mph93%30.27 "Hg10 mi
3:20 AM43 °FPassing clouds.3 mph93%30.27 "HgN/A
2:50 AM43 °FClear.8 mph93%30.27 "Hg10 mi
2:20 AM45 °FClear.7 mph87%30.27 "Hg10 mi
1:50 AM45 °FClear.13 mph87%30.27 "Hg10 mi
1:20 AM45 °FClear.12 mph87%30.27 "Hg10 mi
12:50 AM45 °FClear.8 mph87%30.27 "Hg10 mi
12:20 AM45 °FClear.8 mph87%30.27 "Hg10 mi
11:50 PM
Sun, May 1
45 °FClear.10 mph87%30.27 "Hg10 mi
11:20 PM46 °FClear.9 mph82%30.27 "Hg10 mi
10:50 PM46 °FClear.10 mph82%30.27 "Hg10 mi
10:20 PM48 °FClear.10 mph76%30.27 "Hg10 mi
9:50 PM48 °FClear.9 mph76%30.27 "Hg10 mi
9:20 PM50 °FSunny.10 mph71%30.24 "Hg10 mi
8:50 PM50 °FSunny.13 mph71%30.24 "Hg10 mi
8:20 PM52 °FSunny.12 mph67%30.24 "Hg10 mi
7:50 PM52 °FSunny.15 mph67%30.21 "Hg10 mi
7:20 PM54 °FPassing clouds.14 mph63%30.21 "HgN/A
6:50 PM54 °FSunny.17 mph63%30.21 "Hg10 mi
6:20 PM54 °FSunny.18 mph63%30.21 "Hg10 mi
5:50 PM54 °FPassing clouds.20 mph63%30.21 "HgN/A
5:20 PM54 °FPassing clouds.17 mph63%30.21 "HgN/A
4:50 PM54 °FPassing clouds.16 mph67%30.18 "HgN/A
4:20 PM52 °FScattered clouds.15 mph72%30.18 "HgN/A
3:50 PM52 °FScattered clouds.15 mph72%30.18 "HgN/A
3:20 PM50 °FScattered clouds.13 mph76%30.18 "HgN/A
2:50 PM48 °FPartly sunny.14 mph82%30.18 "HgN/A
2:20 PM46 °FPartly sunny.14 mph82%30.18 "HgN/A
1:50 PM45 °FPartly sunny.14 mph87%30.18 "HgN/A
1:20 PM43 °FPartly sunny.14 mph93%30.18 "HgN/A
12:50 PM43 °FPartly sunny.13 mph87%30.18 "HgN/A
12:20 PM41 °FPartly sunny.12 mph93%30.18 "HgN/A
11:50 AM41 °FPartly sunny.13 mph93%30.18 "Hg6 mi
11:20 AM39 °FPartly sunny.15 mph100%30.15 "Hg6 mi
10:50 AM39 °FPartly sunny.16 mph93%30.15 "Hg5 mi
10:20 AM39 °FPartly sunny.14 mph93%30.15 "Hg5 mi
9:50 AM39 °FPartly sunny.12 mph93%30.15 "HgN/A
8:50 AM37 °FPartly sunny.15 mph100%30.12 "HgN/A
8:20 AM37 °FPartly sunny.15 mph100%30.12 "HgN/A
7:50 AM37 °FLight rain. Partly sunny.17 mph100%30.12 "HgN/A
7:20 AM37 °FLight rain. Partly sunny.17 mph100%30.12 "Hg4 mi
6:20 AM39 °FLight rain. Fog.18 mph100%30.09 "Hg2 mi
5:50 AM39 °FRain. Partly cloudy.18 mph100%30.09 "Hg4 mi
Weather by CustomWeather, © 2016

See weather overviewHow to use our weather pages